This is the latest recevied weather packets stored in our database for station/object WD8INF-9. If no packets are shown the sender has not sent any weather packets the latest 10 day(s).
| Time | Temp. | Humidity | Pressure | Rain* | Wind** | Luminosity | Snow |
|---|---|---|---|---|---|---|---|
| 1777757606 | 13.33° C | - | 1015.6 hPa | 0 mm | - | - | - |
| 1777757004 | 15° C | - | 1015.4 hPa | 0 mm | - | - | - |
| 1777756704 | 16.67° C | - | 1015.5 hPa | 0 mm | - | - | - |
| 1777756404 | 20° C | - | 1015.2 hPa | 0 mm | - | - | - |
| 1777756104 | 16.67° C | - | 1015.4 hPa | 0 mm | - | - | - |
| 1777755804 | 11.67° C | - | 1015.5 hPa | 0 mm | - | - | - |
| 1777755503 | 14.44° C | - | 1015.3 hPa | 0 mm | - | - | - |
| 1777755203 | 15° C | - | 1015.4 hPa | 0 mm | - | - | - |
| 1777754902 | 12.22° C | - | 1015.3 hPa | 0 mm | - | - | - |
| 1777754602 | 12.22° C | - | 1015.3 hPa | 0 mm | - | - | - |
| 1777754301 | 12.78° C | - | 1015.4 hPa | 0 mm | - | - | - |
| 1777754001 | 13.89° C | - | 1015.4 hPa | 0 mm | - | - | - |
| 1777753701 | 18.33° C | - | 1015.4 hPa | 0 mm | - | - | - |
| 1777753401 | 13.89° C | - | 1015.4 hPa | 0 mm | - | - | - |
| 1777753100 | 14.44° C | - | 1015.2 hPa | 0 mm | - | - | - |
| 1777752800 | 16.67° C | - | 1015.3 hPa | 0 mm | - | - | - |
| 1777752500 | 13.33° C | - | 1015.4 hPa | 0 mm | - | - | - |
| 1777752200 | 14.44° C | - | 1015.6 hPa | 0 mm | - | - | - |
| 1777751899 | 18.33° C | - | 1015.4 hPa | 0 mm | - | - | - |
| 1777751599 | 12.78° C | - | 1015.5 hPa | 0 mm | - | - | - |
| 1777751299 | 12.78° C | - | 1015.6 hPa | 0 mm | - | - | - |
| 1777750999 | 13.89° C | - | 1015.6 hPa | 0 mm | - | - | - |
| 1777750698 | 17.78° C | - | 1015.5 hPa | 0 mm | - | - | - |
| 1777750398 | 17.22° C | - | 1015.6 hPa | 0 mm | - | - | - |
| 1777750098 | 13.33° C | - | 1015.7 hPa | 0 mm | - | - | - |
* Rain since midnight (hover to see other rain measurements)
** Current wind speed in m/s (hover to see current wind gust speed)